Regional Weather Roundup
Issued by NWS Northern Indiana

Home | Current Version | Previous Version | Graphics & Text | Print | Product List | Glossary On
Versions: 1 2 3 4 5 6 7 8 9 10 11 12 13 14 15 16 17 18 19 20 21 22 23 24 25 26 27 28 29 30 31 32 33 34 35 36 37 38 39 40 41 42 43 44 45 46 47 48 49 50
220
ASUS43 KIWX 271710
RWRIWX

KIWX WEATHER ROUNDUP
NATIONAL WEATHER SERVICE NORTHERN INDIANA
100 PM EDT FRI MAY 27 2016

NOTE: "FAIR" INDICATES FEW OR NO CLOUDS BELOW 12,000 FEET WITH NO
SIGNIFICANT WEATHER AND/OR OBSTRUCTIONS TO VISIBILITY.

* THESE STATIONS ARE NOT UNDER NWS QUALITY CONTROL. THEY ALSO MAY NOT
  REPORT WEATHER SUCH AS PRECIPITATION OR FOG.

INZ001>027-271800-
NORTHERN INDIANA

CITY           SKY/WX    TMP DP  RH WIND       PRES   REMARKS
GARY*          PTSUNNY   81  72  74 S9        29.92F
VALPARAISO     PTSUNNY   80  64  58 SW15G22   29.94F
MICHIGAN CITY* CLOUDY    77  64  65 S13G22    29.94F
LAPORTE*       MOSUNNY   82  65  56 SW12      29.95F
KNOX*            N/A     79  52  38 S12       29.95
SOUTH BEND     CLOUDY    78  65  63 S16G22    29.97R
ELKHART*       CLOUDY    77  68  73 S9        29.97S
GOSHEN         MOSUNNY   79  63  57 S13       29.98R
MONTICELLO*    MOSUNNY   79  60  52 S7        29.95F
LOGANSPORT*    CLOUDY    81  63  54 S10       29.98F
ROCHESTER*     PTSUNNY   81  64  57 S9G16     29.98F
WARSAW*        MOSUNNY   79  64  61 SW5G17    29.99S
ANGOLA*          N/A     75  68  78 S6        30.00S
FORT WAYNE     CLOUDY    79  64  60 S10       30.01S
HUNTINGTON*    CLOUDY    80  63  55 SW10      30.00F
PERU/GRISSOM   CLOUDY    80  64  58 SW10      29.97F
MARION*        SUNNY     83  61  47 S10       30.00F

$$
INZ028>050-271800-
CENTRAL INDIANA

CITY           SKY/WX    TMP DP  RH WIND       PRES   REMARKS
LAFAYETTE      MOSUNNY   81  63  54 S8G22     29.95F
KOKOMO*        CLOUDY    82  63  51 W13       29.97F
MUNCIE*        SUNNY     84  60  44 S13       30.01S
INDIANAPOLIS   PTSUNNY   81  66  60 S13       29.98F

$$
MIZ043>046-050>051-056>058-064>065-071>073-077>080-271800-
SOUTHWEST LOWER MICHIGAN

CITY           SKY/WX    TMP DP  RH WIND       PRES   REMARKS
BATTLE CREEK   PTSUNNY   79  65  62 S13       29.98S
BENTON HARBOR  PTSUNNY   75  64  68 S10       29.95R
COLDWATER*     CLOUDY    76  65  67 S6        29.99S
HILLSDALE*     CLOUDY    76  61  59 S5        30.01S
HOLLAND        PTSUNNY   79  67  66 W9        29.94S
GRAND RAPIDS   PTSUNNY   84  64  50 S12       29.95S
KALAMAZOO      CLOUDY    79  65  62 S8        29.97S
STURGIS*       CLOUDY    77  64  64 S12       29.98R
THREE RIVERS*  FAIR      76  63  62 S7        29.98R

$$
OHZ001>008-015>018-024>025-271800-
NORTHWEST OHIO

CITY           SKY/WX    TMP DP  RH WIND       PRES   REMARKS
WAUSEON*         N/A     81  81 100 SW6G14    30.00F
DEFIANCE       CLOUDY    80  62  54 S9        30.00S
FINDLAY        MOSUNNY   83  60  45 W9        30.01R
TOLEDO EXPRESS CLOUDY    81  63  54 SW7       30.00R
TOLEDO METCALF CLOUDY    83  61  47 SW9       30.01S
LIMA           MOSUNNY   81  61  50 SW9       30.02S

$$
AND FOR LAKE MICHIGAN COASTAL AND OPEN LAKE BUOY OBSERVATIONS

STATION/POSITION TEMP    WIND        PRES    VSBY  WAVE
                 AIR SEA DIR/SP/G                  HT/PER
                 (F)     (DEG/KT/KT) (MB)    (MI)  (FT/S)
CALUMET HARBOR    74     180/  9/ 12 1012.6R
MICHIGAN CITY     72     140/ 10/ 12   N/A
BURNS HARBOR      74     180/ 11/ 18 1014.2R
SAINT JOSEPH      74     180/  6/  8 1014.6R
SOUTH LAKE BUOY   54 50  140/ 10/ 12 1013.1S         1/ 3
4 MI NW BRIDGMAN  67 62  170/  4/  6   N/A           1/ 2
MICHIGAN CITY     68 59  220/  6/ 10   N/A           1

$$
&&




USA.gov is the U.S. government's official web portal to all federal, state and local government web resources and services.